DW4554 Weather Reports


time (UTC)temp
F
wind
direction
speed
knots
gust
knots
rain 1hr
in
rain 24hr
in
rain mn
in
humidity
%
barometer
mb
20260506001905 61 80 0.9 2.6 0.00 0.00 0.00 67 1004.2
20260506001404 61 112 1.7 5.2 0.00 0.00 0.00 67 1004.2
20260506000904 61 289 2.6 7.8 0.00 0.00 0.00 67 1004.2
20260506000404 61 124 1.7 4.3 0.00 0.00 0.00 67 1004.1
20260505235904 61 158 0.9 7.0 0.00 0.00 0.00 66 1004.1
20260505235404 61 139 3.5 6.1 0.00 0.00 0.00 66 1004.2
20260505234412 61 162 1.7 2.6 0.00 0.00 0.00 66 1004.1
20260505233904 61 119 1.7 6.1 0.00 0.00 0.00 65 1004.1
20260505233404 61 62 1.7 4.3 0.00 0.00 0.00 65 1004.0
20260505232912 62 49 0.9 2.6 0.00 0.00 0.00 64 1004.1
20260505231905 62 150 1.7 20.0 0.00 0.00 0.00 64 1004.2
20260505231404 62 139 1.7 5.2 0.00 0.00 0.00 64 1004.3
20260505230905 62 121 1.7 4.3 0.00 0.00 0.00 63 1004.3
20260505230404 62 95 0.9 2.6 0.00 0.00 0.00 63 1004.3
20260505225904 62 83 0.9 2.6 0.00 0.00 0.00 63 1004.3
20260505225404 62 117 1.7 11.3 0.00 0.00 0.00 63 1004.3
20260505224905 62 121 1.7 5.2 0.00 0.00 0.00 63 1004.3
20260505224404 62 78 2.6 10.4 0.00 0.00 0.00 63 1004.1
20260505223904 63 64 1.7 5.2 0.00 0.00 0.00 62 1004.2
20260505222904 63 131 2.6 6.1 0.00 0.00 0.00 62 1004.4
20260505221904 63 139 2.6 10.4 0.00 0.00 0.00 61 1004.4
20260505221404 63 37 2.6 7.0 0.00 0.00 0.00 61 1004.4
20260505220904 63 82 0.9 5.2 0.00 0.00 0.00 61 1004.5
20260505215905 63 146 2.6 7.8 0.00 0.00 0.00 61 1004.5
20260505215404 63 112 2.6 8.7 0.00 0.00 0.00 60 1004.5
20260505214904 64 66 1.7 8.7 0.00 0.00 0.00 60 1004.5
20260505214404 64 41 2.6 7.0 0.00 0.00 0.00 59 1004.5
20260505213905 64 45 0.0 2.6 0.00 0.00 0.00 59 1004.5
20260505213405 64 63 2.6 7.0 0.00 0.00 0.00 59 1004.5
20260505212904 64 128 1.7 5.2 0.00 0.00 0.00 59 1004.5
20260505212404 64 118 0.9 6.1 0.00 0.00 0.00 58 1004.5
20260505211904 64 142 1.7 6.1 0.00 0.00 0.00 58 1004.6
20260505211404 64 132 2.6 10.4 0.00 0.00 0.00 58 1004.6
20260505210904 64 127 3.5 7.8 0.00 0.00 0.00 57 1004.6
20260505205905 65 143 2.6 6.1 0.00 0.00 0.00 56 1004.7
20260505205404 65 114 1.7 7.0 0.00 0.00 0.00 56 1004.7
20260505204904 65 95 0.9 5.2 0.00 0.00 0.00 55 1004.7
20260505204404 65 107 2.6 7.0 0.00 0.00 0.00 54 1004.9
20260505203904 65 48 1.7 5.2 0.00 0.00 0.00 54 1004.9
20260505203404 65 76 1.7 5.2 0.00 0.00 0.00 53 1005.0
20260505202904 66 144 0.9 4.3 0.00 0.00 0.00 53 1004.9
20260505202404 66 80 0.9 2.6 0.00 0.00 0.00 52 1004.8
20260505201404 66 117 1.7 5.2 0.00 0.00 0.00 52 1004.9
20260505200904 66 145 2.6 6.1 0.00 0.00 0.00 51 1004.8
20260505200404 66 157 3.5 12.2 0.00 0.00 0.00 51 1004.8
20260505195904 66 177 4.3 6.1 0.00 0.00 0.00 50 1004.7
20260505195404 67 160 1.7 5.2 0.00 0.00 0.00 50 1004.8
20260505194904 67 120 1.7 10.4 0.00 0.00 0.00 49 1004.6
20260505194404 67 165 3.5 10.4 0.00 0.00 0.00 49 1004.7
20260505193404 67 148 2.6 5.2 0.00 0.00 0.00 48 1004.7
20260505192904 68 151 3.5 10.4 0.00 0.00 0.00 48 1004.7
20260505192404 68 125 1.7 6.1 0.00 0.00 0.00 48 1004.6
20260505191904 68 62 3.5 7.0 0.00 0.00 0.00 48 1004.8
20260505191404 68 154 1.7 10.4 0.00 0.00 0.00 47 1004.8
20260505190904 68 145 4.3 7.8 0.00 0.00 0.00 47 1004.8
20260505190405 69 94 0.0 6.1 0.00 0.00 0.00 47 1004.7
20260505185404 69 170 4.3 14.8 0.00 0.00 0.00 47 1004.8
20260505184404 70 158 1.7 7.0 0.00 0.00 0.00 47 1004.7
20260505183908 70 66 1.7 5.2 0.00 0.00 0.00 48 1004.6
20260505183404 70 111 0.0 2.6 0.00 0.00 0.00 47 1004.7
20260505182904 70 76 0.0 2.6 0.00 0.00 0.00 47 1004.6
20260505182404 71 151 0.0 2.6 0.00 0.00 0.00 46 1004.6
20260505181904 71 107 0.9 6.1 0.00 0.00 0.00 46 1004.5
20260505181404 71 164 4.3 10.4 0.00 0.00 0.00 46 1004.4
20260505180904 71 176 4.3 10.4 0.00 0.00 0.00 45 1004.4
20260505180404 72 24 1.7 10.4 0.00 0.00 0.00 45 1004.3
20260505175904 72 165 1.7 7.8 0.00 0.00 0.00 45 1004.4
20260505175404 72 146 1.7 7.8 0.00 0.00 0.00 44 1004.3
20260505174905 72 167 5.2 13.0 0.00 0.00 0.00 44 1004.3
20260505174404 73 143 2.6 7.0 0.00 0.00 0.00 44 1004.2
20260505173904 73 175 4.3 11.3 0.00 0.00 0.00 43 1004.2
20260505173404 73 167 3.5 8.7 0.00 0.00 0.00 42 1004.2
20260505172904 74 189 5.2 10.4 0.00 0.00 0.00 42 1004.2
20260505171404 75 173 1.7 6.1 0.00 0.00 0.00 43 1004.1
20260505170904 75 171 4.3 12.2 0.00 0.00 0.00 42 1004.1
20260505170404 75 194 5.2 13.9 0.00 0.00 0.00 42 1004.1
20260505165904 75 165 4.3 10.4 0.00 0.00 0.00 41 1004.2
20260505165404 76 183 7.0 12.2 0.00 0.00 0.00 41 1004.2
20260505164904 76 182 2.6 11.3 0.00 0.00 0.00 40 1004.0
20260505164404 76 178 2.6 10.4 0.00 0.00 0.00 40 1003.9
20260505163904 76 152 4.3 7.8 0.00 0.00 0.00 39 1003.9
20260505163404 76 191 4.3 13.0 0.00 0.00 0.00 39 1003.9
20260505162905 77 175 4.3 7.8 0.00 0.00 0.00 39 1004.0
20260505162404 77 213 6.1 12.2 0.00 0.00 0.00 38 1004.0
20260505161904 77 176 6.1 19.1 0.00 0.00 0.00 38 1004.1
20260505161405 77 160 3.5 10.4 0.00 0.00 0.00 38 1004.1
20260505160405 78 153 2.6 7.8 0.00 0.00 0.00 38 1004.1
20260505152904 80 183 5.2 15.6 0.00 0.00 0.00 36 1004.4
20260505152404 80 193 5.2 13.0 0.00 0.00 0.00 36 1004.4
20260505151904 80 46 3.5 10.4 0.00 0.00 0.00 36 1004.3
20260505151404 79 169 2.6 7.8 0.00 0.00 0.00 37 1004.5
20260505150904 79 137 2.6 7.8 0.00 0.00 0.00 37 1004.6
20260505150405 79 181 5.2 12.2 0.00 0.00 0.00 37 1004.6
20260505140405 81 196 8.7 20.0 0.00 0.00 0.00 25 1005.1
20260505124404 76 161 2.6 7.8 0.00 0.00 0.00 31 1005.8
20260505123904 76 158 4.3 10.4 0.00 0.00 0.00 32 1005.9
20260505123404 76 159 4.3 7.8 0.00 0.00 0.00 32 1006.0
20260505122904 76 158 4.3 10.4 0.00 0.00 0.00 33 1005.9
20260505121404 76 179 2.6 13.0 0.00 0.00 0.00 32 1006.1
20260505120904 76 155 5.2 13.0 0.00 0.00 0.00 31 1006.1
20260505120404 76 108 5.2 12.2 0.00 0.00 0.00 30 1006.1
20260505115404 77 194 5.2 8.7 0.00 0.00 0.00 30 1006.2
20260505114404 77 132 2.6 10.4 0.00 0.00 0.00 30 1006.1
20260505113905 77 135 1.7 4.3 0.00 0.00 0.00 31 1006.2
20260505113404 77 104 2.6 11.3 0.00 0.00 0.00 31 1006.3
20260505112904 77 205 4.3 13.0 0.00 0.00 0.00 30 1006.3
20260505112404 77 121 4.3 12.2 0.00 0.00 0.00 32 1006.3
20260505111904 77 136 4.3 17.4 0.00 0.00 0.00 32 1006.3
20260505111404 77 123 3.5 12.2 0.00 0.00 0.00 31 1006.4
20260505110904 77 128 2.6 14.8 0.00 0.00 0.00 31 1006.4
20260505110404 77 170 4.3 11.3 0.00 0.00 0.00 30 1006.4
20260505101905 77 164 6.1 12.2 0.00 0.00 0.00 30 1007.0
20260505101405 77 185 5.2 13.0 0.00 0.00 0.00 31 1006.9
20260505100904 77 149 2.6 10.4 0.00 0.00 0.00 31 1006.9
20260505095905 76 93 2.6 10.4 0.00 0.00 0.00 31 1006.9
20260505095405 76 158 2.6 8.7 0.00 0.00 0.00 32 1006.8
20260505094404 75 136 3.5 11.3 0.00 0.00 0.00 32 1007.1
20260505093904 75 193 2.6 8.7 0.00 0.00 0.00 33 1007.1
20260505093405 75 102 2.6 7.0 0.00 0.00 0.00 32 1007.1
20260505092904 74 156 3.5 11.3 0.00 0.00 0.00 33 1007.3
20260505092405 74 174 5.2 10.4 0.00 0.00 0.00 34 1007.3
20260505091905 74 151 3.5 7.8 0.00 0.00 0.00 34 1007.3
20260505091405 73 142 2.6 7.8 0.00 0.00 0.00 33 1007.4
20260505090904 73 197 3.5 10.4 0.00 0.00 0.00 34 1007.5
20260505090404 73 160 1.7 7.8 0.00 0.00 0.00 34 1007.5
20260505085904 73 164 3.5 6.1 0.00 0.00 0.00 34 1007.5
20260505085404 73 147 2.6 6.1 0.00 0.00 0.00 34 1007.4
20260505084904 73 161 6.1 14.8 0.00 0.00 0.00 33 1007.5
20260505084419 73 142 5.2 12.2 0.00 0.00 0.00 33 1007.4
20260505083904 73 159 3.5 11.3 0.00 0.00 0.00 36 1007.5
20260505083404 73 196 2.6 6.1 0.00 0.00 0.00 37 1007.5
20260505082904 72 91 4.3 8.7 0.00 0.00 0.00 36 1007.5
20260505081904 72 160 1.7 7.8 0.00 0.00 0.00 37 1007.6
20260505081404 72 186 2.6 10.4 0.00 0.00 0.00 37 1007.6
20260505080904 72 156 3.5 13.0 0.00 0.00 0.00 36 1007.6
20260505080404 72 169 3.5 10.4 0.00 0.00 0.00 36 1007.6
20260505075904 72 131 5.2 11.3 0.00 0.00 0.00 35 1007.6
20260505075405 72 174 5.2 13.0 0.00 0.00 0.00 36 1007.5
20260505074904 71 155 0.9 5.2 0.00 0.00 0.00 39 1007.5
20260505073404 69 44 1.7 5.2 0.00 0.00 0.00 42 1007.4
20260505072904 69 83 0.9 6.1 0.00 0.00 0.00 44 1007.5
20260505072404 68 56 3.5 7.0 0.00 0.00 0.00 43 1007.4
20260505071404 67 324 2.6 10.4 0.00 0.00 0.00 43 1007.6
20260505070904 67 51 0.9 7.0 0.00 0.00 0.00 44 1007.6
20260505070405 67 45 2.6 7.0 0.00 0.00 0.00 43 1007.6
20260505065904 67 42 5.2 12.2 0.00 0.00 0.00 44 1007.6
20260505064904 66 61 1.7 5.2 0.00 0.00 0.00 44 1007.7
20260505064404 66 29 1.7 6.1 0.00 0.00 0.00 45 1007.8
20260505063904 66 94 0.9 6.1 0.00 0.00 0.00 45 1007.9
20260505063404 66 90 0.9 4.3 0.00 0.00 0.00 45 1008.0
20260505062905 66 125 0.9 4.3 0.00 0.00 0.00 45 1007.9
20260505062404 65 37 0.9 4.3 0.00 0.00 0.00 45 1008.0
20260505061904 65 257 0.9 4.3 0.00 0.00 0.00 45 1008.0
20260505061404 65 63 2.6 10.4 0.00 0.00 0.00 45 1007.9
20260505060905 65 137 0.9 4.3 0.00 0.00 0.00 46 1007.9
20260505060404 65 278 1.7 5.2 0.00 0.00 0.00 45 1007.9
20260505055904 64 58 1.7 10.4 0.00 0.00 0.00 45 1007.9
20260505055404 64 78 0.0 7.0 0.00 0.00 0.00 46 1007.8
20260505053404 63 31 2.6 6.1 0.00 0.00 0.00 48 1007.6
20260505052905 63 62 1.7 7.0 0.00 0.00 0.00 48 1007.7
20260505051905 63 110 1.7 6.1 0.00 0.00 0.00 47 1007.7
20260505051404 63 106 1.7 7.0 0.00 0.00 0.00 47 1007.7
20260505050904 62 72 1.7 6.1 0.00 0.00 0.00 47 1007.8
20260505050404 62 27 1.7 6.1 0.00 0.00 0.00 47 1007.8
20260505041404 59 87 1.7 7.0 0.00 0.00 0.00 49 1008.0
20260505040905 59 112 1.7 6.1 0.00 0.00 0.00 49 1008.0
20260505035904 59 67 1.7 7.0 0.00 0.00 0.00 49 1008.0
20260505035404 58 72 1.7 7.0 0.00 0.00 0.00 49 1008.1
20260505034905 58 61 1.7 5.2 0.00 0.00 0.00 49 1008.1
20260505034404 58 94 1.7 5.2 0.00 0.00 0.00 49 1008.2
20260505033920 58 40 0.0 1.7 0.00 0.00 0.00 49 1008.3
20260505033405 58 48 0.9 2.6 0.00 0.00 0.00 49 1008.3
20260505032904 58 66 0.9 2.6 0.00 0.00 0.00 49 1008.4
20260505032418 58 82 1.7 5.2 0.00 0.00 0.00 49 1008.4
20260505031904 58 51 0.9 5.2 0.00 0.00 0.00 49 1008.4
20260505030904 58 80 1.7 5.2 0.00 0.00 0.00 49 1008.5
20260505025904 58 79 0.9 4.3 0.00 0.00 0.00 50 1008.5
20260505025404 57 56 2.6 6.1 0.00 0.00 0.00 50 1008.5
20260505024904 57 78 2.6 6.1 0.00 0.00 0.00 51 1008.6
20260505024405 57 34 0.9 1.7 0.00 0.00 0.00 51 1008.6
20260505023904 57 84 1.7 2.6 0.00 0.00 0.00 51 1008.6
20260505023405 57 55 0.9 2.6 0.00 0.00 0.00 51 1008.7
20260505022904 57 65 1.7 2.6 0.00 0.00 0.00 52 1008.8
20260505022404 57 76 1.7 4.3 0.00 0.00 0.00 52 1008.8
20260505021904 57 56 1.7 4.3 0.00 0.00 0.00 52 1008.9
20260505021404 56 66 1.7 4.3 0.00 0.00 0.00 52 1008.9
20260505020905 56 81 2.6 6.1 0.00 0.00 0.00 52 1009.0
20260505015904 56 57 1.7 5.2 0.00 0.00 0.00 52 1009.1
20260505015404 56 83 1.7 2.6 0.00 0.00 0.00 53 1009.2
20260505014904 56 72 1.7 2.6 0.00 0.00 0.00 53 1009.2
20260505014404 56 71 1.7 2.6 0.00 0.00 0.00 53 1009.2
20260505013905 56 56 0.9 2.6 0.00 0.00 0.00 53 1009.3
20260505013404 56 81 1.7 2.6 0.00 0.00 0.00 53 1009.4
20260505012904 56 76 0.9 2.6 0.00 0.00 0.00 53 1009.5
20260505012404 56 80 0.9 2.6 0.00 0.00 0.00 52 1009.4
20260505011905 56 81 0.9 1.7 0.00 0.00 0.00 52 1009.5
20260505011404 57 82 0.9 2.6 0.00 0.00 0.00 52 1009.5
20260505010904 57 82 0.9 2.6 0.00 0.00 0.00 52 1009.5
20260505010404 57 82 0.9 2.6 0.00 0.00 0.00 52 1009.6
20260505005905 57 61 0.9 1.7 0.00 0.00 0.00 51 1009.7
20260505005404 57 84 0.9 2.6 0.00 0.00 0.00 52 1009.8
20260505004904 57 83 0.9 2.6 0.00 0.00 0.00 51 1009.8
20260505004404 57 79 0.0 1.7 0.00 0.00 0.00 51 1009.8
20260505003904 56 90 0.9 5.2 0.00 0.00 0.00 51 1009.8
20260505002905 56 92 0.9 4.3 0.00 0.00 0.00 52 1009.9
20260505002404 56 73 1.7 2.6 0.00 0.00 0.00 51 1009.9